| time (UTC) | temp C | wind direction | speed KPH | gust KPH | rain 1hr cm | rain 24hr cm | rain mn cm | humidity % | barometer mb |
| 20260503175959 | 15 | 263 | 9.7 | 22.5 | 0.00 | 0.84 | 0.28 | 84 | 1010.7 |
| 20260503175446 | 15 | 263 | 9.7 | 30.6 | 0.00 | 0.84 | 0.28 | 85 | 1010.9 |
| 20260503174952 | 15 | 263 | 9.7 | 30.6 | 0.00 | 0.84 | 0.28 | 85 | 1010.9 |
| 20260503174437 | 15 | 263 | 9.7 | 30.6 | 0.00 | 0.84 | 0.28 | 85 | 1010.9 |
| 20260503170744 | 14 | 263 | 6.4 | 19.3 | 0.00 | 0.84 | 0.28 | 87 | 1011.2 |
| 20260503170238 | 14 | 263 | 4.8 | 30.6 | 0.00 | 0.86 | 0.28 | 87 | 1011.2 |
| 20260503150601 | 13 | 263 | 4.8 | 32.2 | 0.15 | 0.99 | 0.25 | 86 | 1011.6 |
| 20260503131126 | 13 | 263 | 6.4 | 27.4 | 0.28 | 0.74 | 0.74 | 78 | 1012.2 |
| 20260503130612 | 14 | 263 | 8.0 | 27.4 | 0.61 | 0.71 | 0.71 | 77 | 1012.2 |
| 20260503110820 | 14 | 263 | 4.8 | 22.5 | 0.00 | 0.64 | 0.64 | 85 | 1011.7 |
| 20260503110307 | 14 | 263 | 6.4 | 22.5 | 0.08 | 0.64 | 0.64 | 85 | 1011.7 |
| 20260503090126 | 14 | 263 | 0.0 | 6.4 | 0.00 | 0.56 | 0.56 | 85 | 1011.2 |
| 20260503081252 | 16 | 263 | 6.4 | 24.1 | 0.00 | 0.46 | 0.43 | 72 | 1010.2 |
| 20260503080741 | 16 | 263 | 4.8 | 24.1 | 0.00 | 0.46 | 0.43 | 71 | 1010.2 |
| 20260503080227 | 16 | 263 | 4.8 | 24.1 | 0.00 | 0.46 | 0.43 | 70 | 1010.2 |
| 20260503072640 | 16 | 263 | 3.2 | 24.1 | 0.00 | 0.46 | 0.43 | 76 | 1010.5 |
| 20260503072148 | 16 | 263 | 4.8 | 24.1 | 0.00 | 0.46 | 0.43 | 76 | 1010.5 |
| 20260503071645 | 16 | 263 | 4.8 | 24.1 | 0.00 | 0.46 | 0.43 | 76 | 1010.5 |
| 20260503070525 | 16 | 263 | 6.4 | 22.5 | 0.00 | 0.46 | 0.43 | 77 | 1010.2 |
| 20260503060330 | 15 | 263 | 4.8 | 22.5 | 0.00 | 0.51 | 0.43 | 81 | 1010.6 |
| 20260503054804 | 15 | 263 | 11.3 | 40.2 | 0.08 | 0.51 | 0.41 | 78 | 1010.6 |
| 20260503053105 | 18 | 263 | 9.7 | 35.4 | 0.00 | 0.46 | 0.28 | 61 | 1010.1 |
| 20260503052600 | 18 | 263 | 8.0 | 35.4 | 0.00 | 0.46 | 0.28 | 60 | 1010.1 |
| 20260503052059 | 18 | 263 | 8.0 | 32.2 | 0.00 | 0.46 | 0.28 | 59 | 1010.1 |
| 20260503051602 | 18 | 263 | 9.7 | 32.2 | 0.00 | 0.46 | 0.28 | 59 | 1010.1 |
| 20260503051107 | 18 | 263 | 11.3 | 32.2 | 0.00 | 0.46 | 0.28 | 57 | 1009.8 |
| 20260503050549 | 19 | 263 | 8.0 | 32.2 | 0.00 | 0.46 | 0.28 | 56 | 1009.8 |
| 20260503045437 | 18 | 263 | 4.8 | 16.1 | 0.00 | 0.51 | 0.28 | 59 | 1010.0 |
| 20260503044932 | 18 | 263 | 4.8 | 27.4 | 0.00 | 0.56 | 0.28 | 59 | 1010.0 |
| 20260503044425 | 18 | 263 | 6.4 | 27.4 | 0.00 | 0.56 | 0.28 | 58 | 1010.0 |
| 20260503043918 | 19 | 263 | 6.4 | 27.4 | 0.00 | 0.64 | 0.28 | 57 | 1009.9 |
| 20260503042733 | 18 | 263 | 6.4 | 30.6 | 0.00 | 0.66 | 0.28 | 58 | 1010.1 |
| 20260503042213 | 18 | 263 | 8.0 | 30.6 | 0.00 | 0.66 | 0.28 | 61 | 1010.1 |
| 20260503041701 | 18 | 263 | 9.7 | 30.6 | 0.00 | 0.71 | 0.28 | 61 | 1010.1 |
| 20260503041146 | 18 | 263 | 8.0 | 30.6 | 0.00 | 0.71 | 0.28 | 60 | 1010.1 |
| 20260503040634 | 18 | 263 | 6.4 | 29.0 | 0.00 | 0.71 | 0.28 | 60 | 1010.1 |
| 20260503040114 | 18 | 263 | 6.4 | 27.4 | 0.00 | 0.71 | 0.28 | 60 | 1010.1 |
| 20260503035622 | 18 | 263 | 9.7 | 32.2 | 0.00 | 0.71 | 0.28 | 61 | 1010.2 |
| 20260503035130 | 18 | 263 | 11.3 | 32.2 | 0.00 | 0.74 | 0.28 | 60 | 1010.2 |
| 20260503033955 | 18 | 263 | 8.0 | 33.8 | 0.00 | 0.74 | 0.28 | 63 | 1010.3 |
| 20260503033500 | 18 | 263 | 6.4 | 33.8 | 0.00 | 0.74 | 0.28 | 64 | 1010.3 |
| 20260503033003 | 17 | 263 | 6.4 | 33.8 | 0.00 | 0.74 | 0.28 | 65 | 1010.3 |
| 20260503032456 | 17 | 263 | 8.0 | 27.4 | 0.00 | 0.74 | 0.28 | 69 | 1010.5 |
| 20260503031939 | 17 | 263 | 8.0 | 33.8 | 0.00 | 0.76 | 0.28 | 70 | 1010.5 |
| 20260503031439 | 16 | 263 | 8.0 | 33.8 | 0.00 | 0.76 | 0.28 | 73 | 1010.5 |
| 20260503030920 | 16 | 263 | 9.7 | 33.8 | 0.00 | 0.81 | 0.28 | 73 | 1010.9 |
| 20260503025747 | 16 | 263 | 6.4 | 25.7 | 0.00 | 0.84 | 0.28 | 72 | 1010.9 |
| 20260503025229 | 16 | 263 | 8.0 | 33.8 | 0.00 | 0.84 | 0.28 | 70 | 1010.9 |
| 20260503024724 | 17 | 263 | 9.7 | 33.8 | 0.00 | 0.81 | 0.28 | 64 | 1010.9 |
| 20260503024204 | 17 | 263 | 9.7 | 33.8 | 0.00 | 0.81 | 0.25 | 60 | 1010.6 |
| 20260503023650 | 18 | 263 | 6.4 | 33.8 | 0.00 | 0.81 | 0.25 | 60 | 1010.6 |
| 20260503023135 | 18 | 263 | 4.8 | 22.5 | 0.00 | 0.81 | 0.25 | 60 | 1010.6 |
| 20260503022640 | 17 | 263 | 6.4 | 22.5 | 0.00 | 0.81 | 0.25 | 61 | 1011.0 |
| 20260503022128 | 17 | 263 | 8.0 | 25.7 | 0.00 | 0.81 | 0.25 | 60 | 1011.0 |
| 20260503021625 | 17 | 263 | 6.4 | 25.7 | 0.00 | 0.81 | 0.25 | 62 | 1011.0 |
| 20260503015904 | 17 | 263 | 9.7 | 33.8 | 0.00 | 0.81 | 0.25 | 65 | 1010.8 |
| 20260503015403 | 17 | 263 | 4.8 | 33.8 | 0.00 | 0.81 | 0.25 | 66 | 1010.8 |
| 20260503014910 | 17 | 263 | 4.8 | 27.4 | 0.00 | 0.81 | 0.25 | 68 | 1010.8 |
| 20260503014358 | 16 | 263 | 4.8 | 27.4 | 0.00 | 0.81 | 0.25 | 69 | 1011.0 |
| 20260503013905 | 16 | 263 | 4.8 | 27.4 | 0.00 | 0.81 | 0.25 | 70 | 1011.0 |
| 20260503013359 | 16 | 263 | 4.8 | 24.1 | 0.00 | 0.81 | 0.25 | 70 | 1011.0 |
| 20260503010928 | 16 | 263 | 6.4 | 20.9 | 0.00 | 0.81 | 0.25 | 71 | 1011.1 |
| 20260503010412 | 15 | 263 | 4.8 | 20.9 | 0.00 | 0.81 | 0.25 | 72 | 1011.1 |
| 20260503005909 | 15 | 263 | 3.2 | 17.7 | 0.00 | 0.81 | 0.25 | 73 | 1011.1 |
| 20260503005405 | 15 | 263 | 4.8 | 20.9 | 0.00 | 0.81 | 0.25 | 73 | 1011.0 |
| 20260503004846 | 16 | 263 | 6.4 | 20.9 | 0.00 | 0.81 | 0.25 | 71 | 1011.0 |
| 20260503004354 | 16 | 263 | 4.8 | 29.0 | 0.00 | 0.81 | 0.25 | 69 | 1011.2 |
| 20260503003846 | 16 | 263 | 6.4 | 29.0 | 0.00 | 0.81 | 0.25 | 68 | 1011.2 |
| 20260503003338 | 16 | 263 | 6.4 | 29.0 | 0.00 | 0.81 | 0.25 | 69 | 1011.2 |
| 20260503002836 | 16 | 263 | 6.4 | 29.0 | 0.00 | 0.81 | 0.25 | 68 | 1011.2 |
| 20260503002340 | 16 | 263 | 4.8 | 30.6 | 0.00 | 0.81 | 0.25 | 68 | 1011.2 |
| 20260503001841 | 16 | 263 | 4.8 | 30.6 | 0.00 | 0.84 | 0.25 | 69 | 1011.2 |
| 20260503001331 | 16 | 263 | 6.4 | 30.6 | 0.00 | 0.84 | 0.25 | 69 | 1011.2 |
| 20260503000834 | 16 | 263 | 6.4 | 30.6 | 0.00 | 0.84 | 0.25 | 71 | 1011.2 |
| 20260503000339 | 16 | 263 | 6.4 | 25.7 | 0.00 | 0.84 | 0.25 | 72 | 1011.2 |
| 20260502235849 | 15 | 263 | 4.8 | 25.7 | 0.00 | 0.84 | 0.25 | 74 | 1011.2 |
| 20260502235336 | 15 | 263 | 6.4 | 25.7 | 0.00 | 0.84 | 0.23 | 77 | 1011.2 |
| 20260502234830 | 15 | 263 | 6.4 | 25.7 | 0.00 | 0.84 | 0.23 | 78 | 1011.2 |
| 20260502234317 | 14 | 263 | 4.8 | 19.3 | 0.00 | 0.84 | 0.23 | 80 | 1011.2 |
| 20260502233802 | 14 | 263 | 6.4 | 19.3 | 0.00 | 0.84 | 0.23 | 82 | 1011.2 |
| 20260502233303 | 14 | 263 | 6.4 | 19.3 | 0.00 | 0.84 | 0.23 | 83 | 1011.2 |
| 20260502232753 | 13 | 263 | 6.4 | 20.9 | 0.00 | 0.84 | 0.23 | 83 | 1011.3 |
| 20260502232249 | 13 | 263 | 4.8 | 20.9 | 0.00 | 0.84 | 0.23 | 85 | 1011.3 |
| 20260502231737 | 13 | 263 | 4.8 | 20.9 | 0.00 | 0.84 | 0.23 | 85 | 1011.3 |
| 20260502231246 | 13 | 263 | 3.2 | 20.9 | 0.00 | 0.84 | 0.23 | 85 | 1011.3 |
| 20260502230740 | 13 | 263 | 3.2 | 16.1 | 0.00 | 0.84 | 0.23 | 86 | 1011.3 |
| 20260502230223 | 13 | 263 | 3.2 | 16.1 | 0.00 | 0.84 | 0.23 | 86 | 1011.3 |
| 20260502225727 | 13 | 263 | 4.8 | 16.1 | 0.00 | 0.84 | 0.23 | 86 | 1011.3 |
| 20260502225220 | 13 | 263 | 3.2 | 16.1 | 0.00 | 0.84 | 0.23 | 87 | 1011.3 |
| 20260502224709 | 12 | 263 | 3.2 | 8.0 | 0.00 | 0.84 | 0.23 | 88 | 1011.3 |
| 20260502224215 | 12 | 263 | 3.2 | 14.5 | 0.00 | 0.84 | 0.23 | 88 | 1011.3 |
| 20260502223657 | 12 | 263 | 1.6 | 14.5 | 0.00 | 0.84 | 0.23 | 88 | 1011.3 |
| 20260502223140 | 12 | 263 | 3.2 | 14.5 | 0.00 | 0.84 | 0.23 | 89 | 1011.3 |
| 20260502222622 | 12 | 263 | 3.2 | 14.5 | 0.00 | 0.84 | 0.23 | 89 | 1011.2 |
| 20260502222125 | 12 | 263 | 3.2 | 12.9 | 0.00 | 0.84 | 0.23 | 89 | 1011.2 |
| 20260502221612 | 12 | 263 | 3.2 | 9.7 | 0.00 | 0.84 | 0.23 | 89 | 1011.2 |
| 20260502221118 | 12 | 263 | 3.2 | 16.1 | 0.00 | 0.84 | 0.23 | 89 | 1011.1 |
| 20260502220627 | 12 | 263 | 4.8 | 16.1 | 0.00 | 0.84 | 0.23 | 89 | 1011.1 |
| 20260502220120 | 12 | 263 | 6.4 | 16.1 | 0.00 | 0.84 | 0.23 | 89 | 1011.1 |
| 20260502215016 | 12 | 263 | 4.8 | 14.5 | 0.00 | 0.84 | 0.23 | 89 | 1011.2 |
| 20260502214502 | 12 | 263 | 4.8 | 12.9 | 0.00 | 0.84 | 0.23 | 89 | 1011.2 |
| 20260502214001 | 12 | 263 | 3.2 | 12.9 | 0.00 | 0.84 | 0.23 | 89 | 1010.9 |
| 20260502213450 | 12 | 263 | 4.8 | 9.7 | 0.00 | 0.84 | 0.23 | 89 | 1010.9 |
| 20260502212941 | 12 | 263 | 3.2 | 12.9 | 0.00 | 0.84 | 0.23 | 89 | 1010.9 |
| 20260502211819 | 12 | 263 | 4.8 | 14.5 | 0.08 | 0.84 | 0.23 | 89 | 1010.6 |
| 20260502211327 | 12 | 263 | 4.8 | 14.5 | 0.13 | 0.84 | 0.23 | 88 | 1010.2 |
| 20260502210808 | 12 | 263 | 4.8 | 16.1 | 0.33 | 0.84 | 0.23 | 88 | 1010.2 |
| 20260502210315 | 12 | 263 | 4.8 | 16.1 | 0.00 | 0.79 | 0.18 | 88 | 1010.2 |
| 20260502205806 | 12 | 263 | 3.2 | 16.1 | 0.00 | 0.79 | 0.18 | 88 | 1010.2 |
| 20260502205255 | 12 | 263 | 4.8 | 16.1 | 0.00 | 0.79 | 0.18 | 88 | 1010.2 |
| 20260502204747 | 12 | 263 | 3.2 | 14.5 | 0.00 | 0.79 | 0.18 | 88 | 1010.2 |
| 20260502204238 | 12 | 263 | 3.2 | 14.5 | 0.00 | 0.79 | 0.18 | 88 | 1010.2 |
| 20260502203740 | 12 | 263 | 3.2 | 14.5 | 0.00 | 0.79 | 0.18 | 88 | 1010.2 |
| 20260502203226 | 12 | 263 | 3.2 | 14.5 | 0.00 | 0.79 | 0.18 | 88 | 1010.2 |
| 20260502202721 | 12 | 263 | 3.2 | 14.5 | 0.00 | 0.79 | 0.18 | 89 | 1010.2 |
| 20260502202203 | 12 | 263 | 3.2 | 14.5 | 0.00 | 0.79 | 0.18 | 89 | 1010.2 |
| 20260502201709 | 12 | 263 | 3.2 | 12.9 | 0.00 | 0.79 | 0.18 | 89 | 1010.2 |
| 20260502200547 | 12 | 263 | 3.2 | 12.9 | 0.00 | 0.79 | 0.18 | 89 | 1010.2 |
| 20260502200040 | 12 | 263 | 4.8 | 12.9 | 0.00 | 0.79 | 0.18 | 89 | 1010.2 |
| 20260502195544 | 12 | 263 | 3.2 | 12.9 | 0.00 | 0.79 | 0.18 | 89 | 1010.2 |
| 20260502195048 | 12 | 263 | 3.2 | 16.1 | 0.00 | 0.79 | 0.18 | 89 | 1010.2 |
| 20260502194538 | 12 | 263 | 3.2 | 16.1 | 0.00 | 0.79 | 0.18 | 90 | 1010.2 |
| 20260502193404 | 12 | 263 | 3.2 | 16.1 | 0.00 | 0.79 | 0.18 | 89 | 1010.1 |
| 20260502192851 | 12 | 263 | 4.8 | 12.9 | 0.00 | 0.79 | 0.18 | 89 | 1010.0 |
| 20260502192338 | 12 | 263 | 3.2 | 14.5 | 0.00 | 0.79 | 0.18 | 90 | 1010.0 |
| 20260502191205 | 12 | 263 | 3.2 | 14.5 | 0.00 | 0.79 | 0.18 | 90 | 1009.8 |
| 20260502190040 | 12 | 263 | 3.2 | 9.7 | 0.00 | 0.79 | 0.18 | 90 | 1009.8 |
| 20260502185546 | 12 | 263 | 3.2 | 9.7 | 0.00 | 0.79 | 0.18 | 90 | 1009.8 |
| 20260502185045 | 12 | 263 | 3.2 | 9.7 | 0.00 | 0.79 | 0.18 | 90 | 1009.8 |
| 20260502183922 | 12 | 263 | 3.2 | 9.7 | 0.00 | 0.79 | 0.18 | 90 | 1009.8 |
| 20260502182816 | 12 | 263 | 1.6 | 11.3 | 0.00 | 0.79 | 0.18 | 89 | 1009.7 |
| 20260502182256 | 12 | 263 | 3.2 | 11.3 | 0.00 | 0.79 | 0.18 | 89 | 1009.7 |
| 20260502181754 | 12 | 263 | 3.2 | 11.3 | 0.00 | 0.79 | 0.18 | 89 | 1009.7 |
| 20260502181247 | 12 | 263 | 3.2 | 9.7 | 0.00 | 0.79 | 0.18 | 89 | 1009.7 |
| 20260502180730 | 12 | 263 | 3.2 | 9.7 | 0.00 | 0.79 | 0.18 | 89 | 1009.7 |